Regional Weather Roundup
Issued by NWS Sioux Falls, SD

Home | Current Version | Previous Version | Graphics & Text | Print | Product List | Glossary On
Versions: 1 2 3 4 5 6 7 8 9 10 11 12 13 14 15 16 17 18 19 20 21 22 23 24 25 26 27 28 29 30 31 32 33 34 35 36 37 38 39 40 41 42 43 44 45 46 47 48 49 50
000
ASUS43 KFSD 300302
RWRFSD

WEATHER ROUNDUP FOR SE SOUTH DAKOTA/SW MINNESOTA/NW IOWA
NATIONAL WEATHER SERVICE SIOUX FALLS SD
1000 PM CDT WED OCT 29 2014

NOTE: "FAIR" INDICATES FEW OR NO CLOUDS BELOW 12,000 FEET WITH NO
SIGNIFICANT WEATHER AND OR OBSTRUCTIONS TO VISIBILITY.


SDZ038>040-050-052>070-300400-
SOUTHEAST SOUTH DAKOTA

CITY           SKY/WX    TMP DP  RH WIND       PRES   REMARKS
CHAMBERLAIN    MOCLDY    46  33  60 CALM      29.98R
HURON          CLOUDY    48  31  51 S10       29.97F
MADISON        CLOUDY    43  32  65 S9        30.01S
MITCHELL       CLOUDY    48  33  56 SE10      29.99F
SIOUX FALLS    CLOUDY    47  31  53 S7        30.02F
WINNER         FAIR      53  27  36 W7        29.99R
YANKTON        CLOUDY    46  32  57 SE7       30.02F
$$

MNZ071-072-080-081-089-090-097-098-300400-
SOUTHWEST MINNESOTA

CITY           SKY/WX    TMP DP  RH WIND       PRES   REMARKS
FAIRMONT       MOCLDY    36  25  64 S5        30.07F
JACKSON        CLOUDY    39  30  70 S6        30.06F
LUVERNE        CLOUDY    41  32  70 CALM      30.05S
MARSHALL       CLOUDY    41  28  60 S5        30.03S
MONTEVIDEO     CLOUDY    37  34  87 S7        30.05F
PIPESTONE      CLOUDY    43  30  61 S6        30.02S
REDWOOD FALLS  CLOUDY    39  29  67 SE5       30.06R
TRACY          CLOUDY    44  32  62 S5        30.04F
WINDOM         CLOUDY    39  30  70 CALM      30.05F
WORTHINGTON    CLOUDY    41  28  60 S5        30.05F
$$

IAZ001>003-012>014-020>022-031-032-NEZ013-014-SDZ071-300400-
NORTHWEST IOWA

CITY           SKY/WX    TMP DP  RH WIND       PRES   REMARKS
CHEROKEE       MOCLDY    36  33  88 CALM      30.07F
DENISON        PTCLDY    37  32  81 E6        30.07S
ESTHERVILLE    MOCLDY    37  29  72 S7        30.07F
LE MARS        PTCLDY    43  32  65 S6        30.05F
ORANGE CITY    MOCLDY    45  30  57 SE5       30.05F
SHELDON        MOCLDY    41  32  70 S5        30.04F
SIOUX CITY     PTCLDY    39  31  72 SE6       30.06F
SPENCER        MOCLDY    39  31  72 SE3       30.07F
STORM LAKE     MOCLDY    41  30  65 S5        30.09S
$$

ABBREVIATIONS USED IN REMARKS
   TC - TEMPERATURE IN CELSIUS
  WCI - WIND CHILL INDEX
   HX - HEAT INDEX
  VSB - VISIBILITY




USA.gov is the U.S. government's official web portal to all federal, state and local government web resources and services.